Вернуться в каталог

TELSTAR 401

АктивенСвязьGEO
NORAD 22927·PAYLOAD·🇺🇸 United States

Запущен Dec 16, 1993 с Cape Canaveral Space Force Station

Loading…

TLE

СвежийSource: Space-Track

Эпоха: Sep 14, 2026, 05:34 UTC

1 22927U 93077A   26257.23239100 -.00000134  00000-0  00000-0 0  9999
2 22927  14.4281 350.1715 0008827 166.4792 176.9852  1.00286839119462

Отслеживайте TELSTAR 401 в реальном времени с AllMySat

Download on the App Store